Tangier, Morocco

11:41 AM WET on February 28, 2017 (GMT +0000)
Ibn Batouta

Weather History for GMTT - November, 2012

Change the Weather History Date:

Monday, November 5, 2012

  Actual Average Record
Temperature  
Mean Temperature 59 °F -  
Max Temperature 63 °F 64 °F 77 °F (1997)
Min Temperature 55 °F 50 °F 46 °F (2005)
Degree Days  
Heating Degree Days 6    
Growing Degree Days 9 (Base 50)    
Moisture  
Dew Point 55 °F    
Average Humidity 83    
Maximum Humidity 94    
Minimum Humidity 65    
Precipitation  
Precipitation 0.35 in 0.18 in - ()
Sea Level Pressure  
Sea Level Pressure 30.04 in    
Wind  
Wind Speed 6 mph ()    
Max Wind Speed 14 mph    
Max Gust Speed -    
Visibility 4.0 miles    
Events Rain    
Averages and records for this station are not official NWS values.
T = Trace of Precipitation, MM = Missing Value Source: Averaged Metar Reports

Daily Weather History Graph

Daily Weather History Graph

Search for Another Location

Airport or City:

Trip Planner

Search our weather history database for the weather conditions in past years. The results will help you decide how hot, cold, wet, or windy it might be!

Date:

Astronomy

Nov. 05, 2012 Rise Set
Actual Time 6:49 AM WET 5:24 PM WET
Civil Twilight 6:23 AM WET 5:50 PM WET
Nautical Twilight 5:52 AM WET 6:21 PM WET
Astronomical Twilight 5:22 AM WET 6:51 PM WET
Moon 10:47 PM WET (11/5) 12:00 PM WET (11/5)
Length of Visible Light 11h 27m
Length of Day
10h 34m
Waning Gibbous, 65% of the Moon is Illuminated
Nov 5
Waning Gibbous
Nov 7
Last Quarter
Nov 13
New
Nov 20
First Quarter
Nov 28
Full

Hourly Weather History & Observations

Time (WET) Temp. Dew Point Humidity Pressure Visibility Wind Dir Wind Speed Gust Speed Precip Events Conditions
12:00 AM 64 °F 61 °F 88% 30.00 in 3 mi NNW 13.8 mph - - Rain Light Rain
12:00 AM 64.4 °F 60.8 °F 88% 29.98 in 3.1 mi NNW 13.8 mph - N/A Rain Rain
12:30 AM 62.6 °F 60.8 °F 94% 30.01 in 3.1 mi NNW 13.8 mph - N/A Rain Rain
1:00 AM 60.8 °F 59.0 °F 94% 30.01 in 3.1 mi NNW 13.8 mph - N/A Rain Rain
1:30 AM 60.8 °F 59.0 °F 94% 30.01 in 3.1 mi NNW 10.4 mph - N/A Rain Light Rain
2:00 AM 60.8 °F 57.2 °F 88% 30.01 in 3.1 mi NNW 9.2 mph - N/A   Partly Cloudy
2:30 AM - - N/A% 30.01 in 3.1 mi NNW 10.4 mph - N/A   Partly Cloudy
3:00 AM 60 °F 56 °F 83% 30.04 in 2 mi NNW 4.6 mph - -   Overcast
3:00 AM 60.8 °F 57.2 °F 88% 30.01 in 1.8 mi NNW 4.6 mph - N/A   Partly Cloudy
3:30 AM 60.8 °F 57.2 °F 88% 30.04 in 3.1 mi NNW 4.6 mph - N/A   Mostly Cloudy
4:00 AM - - N/A% 30.04 in 3.1 mi NW 13.8 mph - N/A   Mostly Cloudy
4:30 AM 60.8 °F 57.2 °F 88% 30.04 in 3.1 mi NNW 4.6 mph - N/A   Mostly Cloudy
5:30 AM 60.8 °F 55.4 °F 82% 30.04 in 3.1 mi NNW 3.5 mph - N/A   Mostly Cloudy
6:00 AM 61 °F 56 °F 80% 30.06 in 3 mi Calm Calm - -   Partly Cloudy
6:00 AM 60.8 °F 57.2 °F 88% 30.04 in 3.1 mi NNW 1.2 mph - N/A   Mostly Cloudy
6:30 AM 60.8 °F 55.4 °F 82% 30.04 in 3.7 mi Calm Calm - N/A   Mostly Cloudy
7:00 AM 60.8 °F 55.4 °F 82% 30.04 in 3.7 mi NE 3.5 mph - N/A   Mostly Cloudy
7:30 AM 60.8 °F 55.4 °F 82% 30.06 in 3.7 mi Variable 2.3 mph - N/A   Mostly Cloudy
8:00 AM 60.8 °F 55.4 °F 82% 30.06 in 3.7 mi NNE 3.5 mph - N/A   Mostly Cloudy
8:30 AM 60.8 °F 55.4 °F 82% 30.06 in 5.0 mi Calm Calm - N/A   Mostly Cloudy
9:00 AM 63 °F 56 °F 70% 30.09 in 5 mi North 5.8 mph - -   Mostly Cloudy
9:00 AM 62.6 °F 55.4 °F 77% 30.06 in 5.0 mi North 5.8 mph - N/A   Mostly Cloudy
9:30 AM 62.6 °F 55.4 °F 77% 30.06 in 6.2 mi North 5.8 mph - N/A   Mostly Cloudy
10:00 AM 62.6 °F 55.4 °F 77% 30.06 in 6.2 mi Variable 2.3 mph - N/A   Mostly Cloudy
10:30 AM 62.6 °F 55.4 °F 77% 30.06 in 6.2 mi Variable 1.2 mph - N/A   Mostly Cloudy
11:00 AM 62.6 °F 55.4 °F 77% 30.06 in 6.2 mi NE 3.5 mph - N/A   Mostly Cloudy
11:30 AM 62.6 °F 55.4 °F 77% 30.06 in 6.2 mi ENE 4.6 mph - N/A   Mostly Cloudy
12:00 PM 64 °F 55 °F 65% 30.06 in 6 mi NE 3.5 mph - -   Overcast
12:00 PM 64.4 °F 55.4 °F 73% 30.04 in 6.2 mi NE 3.5 mph - N/A   Mostly Cloudy
12:30 PM 62.6 °F 53.6 °F 72% 30.04 in 6.2 mi ENE 3.5 mph - N/A   Mostly Cloudy
1:00 PM 62.6 °F 51.8 °F 68% 30.04 in 6.2 mi North 4.6 mph - N/A   Mostly Cloudy
1:30 PM 62.6 °F 51.8 °F 68% 30.01 in 6.2 mi NNE 4.6 mph - N/A   Mostly Cloudy
2:00 PM 62.6 °F 51.8 °F 68% 30.01 in 6.2 mi NNE 4.6 mph - N/A   Mostly Cloudy
2:30 PM 57.2 °F 48.2 °F 72% 30.06 in 2.5 mi NNW 8.1 mph - N/A Rain Light Rain
3:00 PM 57 °F 51 °F 75% 30.06 in 2 mi NNE 3.5 mph - - Rain Light Rain
3:00 PM 57.2 °F 51.8 °F 82% 30.04 in 1.9 mi North 3.5 mph - N/A Rain Rain
3:30 PM 55.4 °F 51.8 °F 88% 30.04 in 1.9 mi NNE 3.5 mph - N/A Rain Rain
4:00 PM 55.4 °F 51.8 °F 88% 30.04 in 3.1 mi ESE 5.8 mph - N/A Rain Light Rain
4:30 PM 55.4 °F 51.8 °F 88% 30.04 in 5.0 mi ESE 3.5 mph - N/A   Mostly Cloudy
5:00 PM 55.4 °F 53.6 °F 94% 30.01 in 5.0 mi ESE 6.9 mph - N/A   Mostly Cloudy
5:30 PM 55.4 °F 51.8 °F 88% 30.01 in 1.2 mi SSE 4.6 mph - N/A Rain Rain
6:00 PM 55 °F 52 °F 85% 30.04 in 3 mi ESE 4.6 mph - - Rain Light Rain
6:00 PM 55.4 °F 51.8 °F 88% 30.04 in 3.1 mi ESE 3.5 mph - N/A Rain Light Rain
6:30 PM 55.4 °F 51.8 °F 88% 30.01 in 3.7 mi ESE 4.6 mph - N/A   Mostly Cloudy
7:00 PM 55.4 °F 51.8 °F 88% 30.04 in 5.0 mi NE 5.8 mph - N/A   Mostly Cloudy
7:30 PM 55.4 °F 51.8 °F 88% 30.06 in 1.9 mi North 5.8 mph - N/A Rain Light Rain
8:00 PM 57.2 °F 53.6 °F 88% 30.04 in 3.7 mi NE 4.6 mph - N/A   Mostly Cloudy
8:30 PM 57.2 °F 53.6 °F 88% 30.04 in 3.7 mi Variable 1.2 mph - N/A   Mostly Cloudy
9:00 PM 57 °F 53 °F 84% 30.06 in 4 mi NNE 2.3 mph - -   Overcast
9:00 PM 57.2 °F 53.6 °F 88% 30.04 in 3.7 mi Variable 2.3 mph - N/A   Mostly Cloudy
9:30 PM 57.2 °F 53.6 °F 88% 30.04 in 5.0 mi ESE 4.6 mph - N/A   Mostly Cloudy
10:00 PM 59.0 °F 53.6 °F 82% 30.04 in 5.0 mi East 5.8 mph - N/A   Mostly Cloudy
10:30 PM 59.0 °F 53.6 °F 82% 30.04 in 5.0 mi East 6.9 mph - N/A   Mostly Cloudy
11:00 PM 59.0 °F 53.6 °F 82% 30.04 in 5.0 mi East 6.9 mph - N/A   Mostly Cloudy
11:30 PM 59.0 °F 55.4 °F 88% 30.01 in 5.0 mi ENE 6.9 mph - N/A   Mostly Cloudy